Regional Weather Roundup
Issued by NWS

Home | Current Version | Previous Version | Text Only | Print | Product List | Glossary On
Versions: 1 2 3 4 5 6 7 8 9 10 11 12 13 14 15 16 17 18 19 20 21 22 23 24 25 26 27 28 29 30 31 32 33 34 35 36 37 38 39 40 41 42 43 44 45 46 47 48 49 50
000
ASUS46 KLOX 032013
RWRCA

SOUTHERN CALIFORNIA WEATHER ROUNDUP
NATIONAL WEATHER SERVICE OXNARD CALIFORNIA
100 PM PDT THU SEP 03 2015

NOTE: "FAIR" INDICATES FEW OR NO CLOUDS BELOW 12,000 FEET WITH NO
SIGNIFICANT WEATHER AND/OR OBSTRUCTIONS TO VISIBILITY.

  -  STATIONS PRECEEDED BY AN ASTERISK (*) ARE NOT NWS OR FAA
     STATIONS AND ARE NOT SUBJECT TO NWS AND FAA QUALITY CONTROL.

CAZ041-042-087-032100-
LA AND ORANGE COUNTY COASTAL AREAS


CITY           SKY/WX    TMP DP  RH WIND       PRES   REMARKS
L.A. DOWNTOWN  SUNNY     78  55  44 VRB3      29.88F
L.A. AIRPORT   MOSUNNY   74  58  57 W14       29.90F
LONG BEACH     NOT AVBL

CITY           SKY/WX    TMP DP  RH WIND       PRES   REMARKS
AVALON           N/A     72 N/A N/A SE6         N/A
FULLERTON      SUNNY     78  57  48 CALM      29.88F
*GETTY CENTER    N/A     73  57  56 SW9G15      N/A
HAWTHORNE      SUNNY     76  55  48 CALM      29.89F
*LOS ALAMITOS  SUNNY     76  59  55 VRB7      29.89F
*REDONDO BEACH   N/A     78  59  52 S6        29.89F
SANTA ANA      MOSUNNY   75  57  53 S9        29.89F
STA MONICA APT SUNNY     74  58  57 SW10      29.90F
TORRANCE       MOSUNNY   77  57  50 SE9       29.91F
*UCLA            N/A     72  55  56 SW7G15    29.86F

$$

CAZ547-548-048-032100-
LA COUNTY VALLEYS AND INLAND EMPIRE


CITY           SKY/WX    TMP DP  RH WIND       PRES   REMARKS
BURBANK        SUNNY     77  55  46 SE8G17    29.89F
VAN NUYS       MOSUNNY   76  55  48 SE10      29.89F

CITY           SKY/WX    TMP DP  RH WIND       PRES   REMARKS
CORONA AIRPORT CLEAR     78  58  50 N7        29.89F
*CHATSWORTH      N/A     78  56  46 CALM      29.88F
CHINO          MOSUNNY   78  57  48 CALM      29.90F
MARCH AFB      SUNNY     77  55  45 VRB6      29.90F
*NORTHRIDGE      N/A     75  52  43 SE3         N/A
ONTARIO        MOSUNNY   75  56  51 SW3       29.90F
*PASADENA        N/A     79  61  53 E2          N/A
POMONA         SUNNY     75  57  53 W12       29.93F
RIVERSIDE      SUNNY     77  56  48 VRB6      29.90F
SAN BERNARDINO SUNNY     77  54  44 W6        29.91  HAZE
*SAN GABRIEL     N/A     76  59  54 SW8       29.95F
*WHITEMAN AP   NOT AVBL
*WOODLAND HILL   N/A     77  54  44 NW3         N/A

$$

CAZ054-055-032100-
LA AND SAN BERNARDINO COUNTY MOUNTAINS


CITY           SKY/WX    TMP DP  RH WIND       PRES   REMARKS
*BIG BEAR AIRP CLEAR     70  36  28 W17G25    30.14S
*CHILAO          N/A     70  23  17 SE20        N/A
SANDBERG       SUNNY     73  39  29 S15G22    30.02F

$$

CAZ028-029-059-060-099-032100-
ANTELOPE VALLEY AND SURROUNDING AREAS


CITY           SKY/WX    TMP DP  RH WIND       PRES   REMARKS
LANCASTER      SUNNY     83  41  22 SW14      29.89F
PALMDALE       SUNNY     85  40  20 SW18      29.89F
*POPPY PARK      N/A     83  45  25 SW16        N/A

CITY           SKY/WX    TMP DP  RH WIND       PRES   REMARKS
29 PALMS       MOSUNNY   92  33  12 SE10      29.89F
BARSTOW/DAGGET SUNNY     91  28  10 W6        29.84F
BISHOP         SUNNY     86  20   9 S18G26    29.84F
CHINA LAKE     MOSUNNY   91  15   6 S20G29    29.83F
EDWARDS AFB    MOSUNNY   85  39  19 W9G20     29.86F
MOJAVE         SUNNY     82  28  14 S20G26    29.90F
NEEDLES        SUNNY    103  27   7 SW21G26   29.77F HX  96
VICTORVILLE    SUNNY     86  27  11 SW12G22   29.90F

$$

CAZ039-040-032100-
VENTURA AND SANTA BARBARA COUNTY COAST


CITY           SKY/WX    TMP DP  RH WIND       PRES   REMARKS
CAMARILLO      SUNNY     77  59  53 SW10      29.88F
NWS OXNARD       N/A     76  60  57 CALM      29.88F
OXNARD AIRPORT PTSUNNY   72  59  63 SW10      29.89F
*POINT MUGU    MOSUNNY   77  59  53 S13       29.90F
SBA APT/GOLETA MOSUNNY   76  60  57 SW10G16   29.89F
*SANTA BARBARA   N/A     77  56  47 NW2       29.96F
*VENTURA         N/A     77  57  50 SW6       29.50S

$$

CAZ044-045-032100-
VENTURA COUNTY VALLEYS


CITY           SKY/WX    TMP DP  RH WIND       PRES   REMARKS
*SIMI VALLEY     N/A     78  56  47 E5        29.83F
*OJAI            N/A     79  59  50 W6        29.81F
*FILLMORE        N/A     83  59  43 CALM      29.76F

$$

CAZ053-032100-
VENTURA COUNTY MOUNTAINS


CITY           SKY/WX    TMP DP  RH WIND       PRES   REMARKS
*LOCKWOOD VLY    N/A     73  27  17 MISG        N/A
*ROSE VALLEY     N/A     77  55  47 MISG        N/A

$$

CAZ034-035-036-032100-
CENTRAL COAST AND SANTA YNEZ VALLEY


CITY           SKY/WX    TMP DP  RH WIND       PRES   REMARKS
SAN LUIS OBISP SUNNY     76  56  49 NW15      29.91F
SANTA MARIA    MOSUNNY   76  58  53 NW17      29.90F

CITY           SKY/WX    TMP DP  RH WIND       PRES   REMARKS
*CAL POLY SLO    N/A    N/A N/A N/A W8          N/A
*LOMPOC        SUNNY     73  57  56 W16       29.92F
*PISMO BEACH     N/A     65  60  83 W7        29.93F
*SANTA YNEZ    FAIR      77  52  41 NW3       29.89F

$$

CAZ037-038-051-032100-
SAN LUIS OBISPO COUNTY INTERIOR AND CUYAMA VALLEY


CITY           SKY/WX    TMP DP  RH WIND       PRES   REMARKS
*CUYAMA          N/A     77  49  36 N7        29.80F
PASO ROBLES    SUNNY     79  51  37 NW10      29.89F

$$

CAZ032-033-061-032100-
SOUTHERN DESERTS


CITY           SKY/WX    TMP DP  RH WIND       PRES   REMARKS
BLYTHE         SUNNY     98  58  26 S8        29.75F HX  97
IMPERIAL       SUNNY    100  45  15 VRB3      29.72F HX  96
PALM SPRINGS   SUNNY     98  36  11 VRB6      29.77F HX  93
THERMAL        SUNNY     97  46  17 VRB3      29.70F HX  93

$$

ELSEWHERE ACROSS THE WESTERN UNITED STATES AND MEXICO


CITY           SKY/WX    TMP DP  RH WIND       PRES   REMARKS
DEATH VALLEY,    N/A    103  27   7 S9          N/A  HX  96
DENVER, CO     PTSUNNY   85  42  22 VRB3      30.00F
GRAND CANYON,  SUNNY     77  38  24 SW15G28   30.18F
HONOLULU, HI   LGT RAIN  79  73  83 NW6       29.91R
KAHULUI, MAUI  MOSUNNY   88  72  58 SE6       29.90F HX  94
LAKE TAHOE, CA MOSUNNY   66  35  31 SW10G20   30.01F
LAS VEGAS, NV  MOSUNNY   96  33  11 VRB7G17   29.76F HX  91
MAMMOTH LAKES, FAIR      73  25  16 SE8G23    30.04F
MEXICO CITY, M MOSUNNY   73  50  43 SE5       30.24F
PHOENIX, AZ    MOSUNNY   98  42  14 SE6       29.81F HX  94
PORTLAND, OR   MOSUNNY   67  46  47 VRB7      30.01F
RENO, NV       MOSUNNY   79  34  19 W15G26    29.88F
SALT LAKE CITY PTSUNNY   87  39  18 S25G31    29.86F
SAN DIEGO, CA  MOSUNNY   76  57  51 W6        29.92F
SAN FRANCISCO, MOSUNNY   67  52  58 W20G29    29.92F
SAN JOSE, CA   MOSUNNY   72  50  45 N12G18    29.91F
SEATTLE, WA    PTSUNNY   60  48  64 SW10      30.01F
TIJUANA, MEX   SUNNY     75  54  46 NW15      29.93

$$

STATION/POSITION TIME  TEMP    WIND        PRES    VSBY  WAVE
                       AIR SEA DIR/SP/G                  HT/PER
                 (UTC) (F)     (DEG/KT/KT) (MB)    (MI)  (FT/S)
POINT ARGUELLO B NOT AVBL
WEST SANTA BARBA 1950   65 67  300/ 12/ 14 1012.0F         6/11
POINT CONCEPTION NOT AVBL
EAST SANTA BARBA 2000   68 72  240/  8/ 10 1012.6F
SANTA MONICA BAY 1950   67 70   60/  2/  4 1012.5F         3/12



USA.gov is the U.S. government's official web portal to all federal, state and local government web resources and services.